Location: Recife
(8.0585°S, 34.8848°W)
Time: 12:41:52
(UTC-03:00)

Tiros 1 - Pass Details

Date: 20 April 2026
Orbit: 618 x 648 km, 48.4° (Epoch: 11 May)

Event Time Altitude Azimuth Distance (km) Brightness Sun altitude
Rises 03:49:47 0° 198° (SSW) 2,911 - -23.2°
Reaches altitude 10° 03:52:36 10° 181° (S) 1,995 - -22.5°
Exits shadow 03:52:40 10° 181° (S) 1,980 9.5 -22.5°
Maximum altitude 03:56:03 21° 133° (SE) 1,413 9.3 -21.7°
Drops below altitude 10° 03:59:27 10° 84° (E) 1,977 10.8 -20.9°
Sets 04:02:14 0° 67° (ENE) 2,876 11.9 -20.2°
